Location: Elkol
(41.7238°N, 110.6124°W)
Time: 07:24:51
(UTC+00:00)

Envisat - Pass Details

Date: 19 January 2022
Orbit: 764 x 765 km, 98.2° (Epoch: 21 May)

Event Time Altitude Azimuth Distance (km) Brightness Sun altitude
Rises 11:59:15 0° 17° (NNE) 3,238 6.4 -30.6°
Reaches altitude 10° 12:01:36 10° 21° (NNE) 2,308 5.7 -30.2°
Maximum altitude 12:06:37 58° 100° (E) 888 3.5 -29.3°
Drops below altitude 10° 12:11:35 10° 180° (S) 2,293 5.5 -28.3°
Sets 12:13:55 0° 184° (S) 3,215 6.2 -27.9°
